Wind_Speed
10 10 10 9 9 9 10 9 8 8 7 7 7 6 6 5 5 4 4 4 4 4 4 3 2 3 4 5 4 4 4 5 5 5 5 6 5 5 5 5 5 5 5
10 10 10 9 9 9 9 10 8 8 8 7 7 7 6 6 6 5 5 5 5 5 5 4 4 3 4 4 4 4 4 6 6 5 5 5 5 5 5 5 4 4 5
10 10 10 10 10 10 10 10 9 8 8 8 7 7 7 7 6 6 6 5 5 5 5 5 4 4 4 4 4 5 5 6 7 6 5 5 6 6 6 5 4 4 5
9 10 10 10 10 10 10 10 9 9 8 8 7 7 7 7 7 6 6 6 6 6 5 5 5 5 5 6 6 6 6 6 6 6 5 5 6 6 6 5 4 4 5
9 9 9 10 10 9 9 10 9 9 9 8 8 7 7 7 7 7 6 6 6 6 6 6 5 5 6 6 7 7 7 6 5 5 5 4 5 6 5 5 5 5 5
9 9 10 10 9 9 9 9 9 9 9 9 8 8 8 7 7 7 7 6 6 6 6 6 5 4 5 6 7 8 7 6 6 5 5 5 5 6 6 5 5 5 5
9 10 10 10 10 9 9 9 9 9 9 9 9 8 8 7 8 8 7 6 6 5 5 5 5 3 2 4 6 6 6 7 7 7 6 6 5 5 5 6 6 6 6
9 10 10 10 10 10 9 9 9 9 9 9 9 9 8 7 8 8 7 6 6 5 5 4 4 3 4 5 6 6 7 7 7 7 7 7 6 5 5 5 5 6 6
9 10 10 10 10 10 10 10 9 9 9 9 9 9 9 8 8 8 7 7 6 6 5 5 4 4 5 5 6 6 7 6 7 7 7 7 6 6 6 6 6 6 7
10 10 10 10 10 10 9 10 10 10 10 10 10 10 9 9 9 8 8 8 7 7 6 4 3 4 5 6 6 7 7 6 7 7 7 7 7 7 7 7 7 7 7
10 9 9 10 10 9 9 10 10 10 10 10 10 10 9 9 9 9 8 8 8 7 6 5 4 4 5 6 6 7 7 6 7 8 8 8 8 7 7 7 7 7 7
10 10 10 9 9 9 9 10 10 10 11 10 10 9 9 9 8 8 8 8 7 6 5 4 4 4 6 6 6 7 7 7 8 8 9 8 8 8 8 8 8 7 8
9 9 10 10 9 9 9 10 10 10 11 10 9 8 8 8 8 7 7 7 7 5 4 4 4 4 5 6 6 7 7 7 8 8 7 8 8 8 8 8 8 8 9
9 9 9 9 9 10 10 10 10 10 11 11 9 9 9 9 8 8 8 8 6 5 4 3 3 3 4 5 6 7 7 8 8 8 7 8 7 7 7 8 8 9 9
8 9 9 9 10 10 10 10 10 10 11 10 10 9 9 9 9 8 8 8 6 5 4 4 4 3 4 5 6 6 7 7 8 8 9 9 8 8 8 8 8 8 8
8 8 9 10 10 9 9 10 10 10 10 9 9 9 8 8 8 9 8 7 5 5 4 4 4 4 4 5 5 6 6 6 7 7 8 8 8 9 8 8 9 9 9
10 9 9 10 10 9 9 10 10 10 10 9 9 9 9 9 8 9 8 7 6 5 5 4 4 4 4 5 5 5 5 6 6 7 8 8 9 9 9 9 9 9 9
10 9 9 10 10 9 10 10 10 10 10 9 9 9 10 9 8 9 8 7 6 6 6 5 5 5 5 5 6 6 7 7 6 6 7 8 8 9 9 10 9 9 9
10 10 10 10 10 9 9 10 10 11 10 9 9 10 10 9 9 9 7 7 7 7 6 6 6 5 5 5 6 7 8 8 8 8 8 8 8 8 8 8 8 9 9
11 11 11 11 10 9 9 10 10 10 10 9 10 10 10 10 9 8 8 8 8 7 7 6 6 5 5 5 6 6 7 8 8 8 8 8 8 8 8 8 8 8 9
11 11 11 11 10 9 10 10 10 10 10 9 10 10 10 10 10 9 8 8 8 8 7 6 6 6 6 6 7 7 7 8 9 9 9 9 8 9 9 9 9 9 9
11 10 10 10 9 9 10 10 10 10 10 10 10 10 11 10 10 9 9 9 8 8 7 7 6 7 7 7 8 7 7 8 9 9 9 9 9 9 9 9 10 9 9
11 10 9 10 10 10 10 10 10 10 10 11 11 11 11 10 10 9 9 9 8 8 8 7 7 7 7 8 8 8 8 8 9 9 9 10 10 10 10 11 10 10 10
11 10 10 10 11 11 10 10 10 10 10 11 11 11 11 11 11 10 9 9 9 9 8 8 8 8 8 8 9 8 8 8 8 9 9 10 11 11 11 11 12 12 11
12 11 11 11 12 12 11 10 11 10 10 11 11 11 11 11 11 10 10 9 10 9 9 9 9 9 9 9 9 9 9 9 9 10 10 11 12 12 12 12 12 12 12
13 12 12 12 12 12 11 11 11 10 10 11 12 12 12 11 11 11 10 10 10 9 9 9 9 9 10 10 9 9 9 9 10 10 11 11 11 12 12 13 12 13 12
Wind_Direction
21 20 17 15 15 12 8 4 1 357 353 350 346 343 344 342 341 342 336 323 315 310 302 288 279 255 233 230 225 215 211 200 197 202 195 184 184 186 184 180 189 188 192
20 19 15 11 10 9 4 1 1 358 353 350 348 345 343 340 331 324 319 312 308 306 298 287 282 270 251 245 238 226 211 202 204 206 206 201 198 203 201 202 203 200 204
18 16 13 10 9 8 4 359 359 360 358 358 353 347 344 340 330 320 316 309 305 304 303 290 283 275 258 244 236 228 219 212 210 207 209 213 211 218 218 210 212 213 213
16 14 11 10 10 9 8 4 2 2 359 358 354 350 348 344 337 327 319 315 312 306 305 294 281 274 259 242 229 224 222 217 212 212 213 218 218 223 216 214 226 220 222
16 13 10 9 10 10 8 5 3 4 2 358 352 348 346 344 343 339 331 321 315 307 302 296 289 280 265 244 226 220 220 225 220 214 216 223 223 222 220 224 229 224 235
9 7 6 7 9 8 7 7 6 2 360 355 352 346 343 342 343 341 333 327 320 311 306 301 300 300 269 231 219 217 218 226 224 222 221 227 234 234 228 227 219 226 234
3 1 1 4 6 4 4 3 3 2 359 356 353 349 345 344 341 338 334 326 322 317 309 304 301 293 247 212 213 218 222 226 227 228 229 229 227 233 232 226 225 230 231
360 358 358 3 4 1 1 1 1 359 357 356 353 348 346 342 339 337 330 322 313 311 308 300 286 264 232 216 220 226 228 231 227 230 234 236 234 242 242 234 233 237 233
359 355 355 360 1 2 2 360 359 359 356 354 354 347 345 343 338 337 330 321 313 308 301 290 284 256 231 221 225 229 231 229 231 234 238 242 244 244 241 243 243 246 246
359 357 356 358 358 358 358 358 357 355 354 353 352 346 342 342 340 337 333 321 311 304 294 282 272 245 230 224 229 231 229 226 231 235 237 239 241 244 245 250 248 249 250
355 356 356 357 356 357 358 358 356 355 351 350 348 344 342 343 338 335 334 325 314 304 290 275 260 251 233 224 227 229 227 229 235 236 239 238 241 244 243 248 252 252 256
352 357 360 359 356 354 355 357 354 352 351 347 345 346 345 345 340 335 335 332 324 312 291 274 255 252 240 229 231 234 233 234 235 238 240 239 243 243 244 252 254 255 256
348 356 2 4 2 359 357 357 354 351 351 348 346 348 349 349 351 345 340 337 333 320 298 285 270 260 247 237 232 232 234 236 237 238 238 243 245 246 249 252 257 257 256
345 350 356 359 359 357 357 356 353 351 350 350 349 349 352 354 356 350 345 340 337 327 308 292 284 264 256 245 237 234 236 237 241 238 239 242 244 249 256 256 256 259 259
337 343 349 353 354 354 354 354 352 351 350 352 350 348 350 351 355 353 350 346 342 335 320 308 294 271 257 251 242 237 238 242 241 242 243 247 251 254 260 259 260 261 264
333 336 340 345 348 350 354 354 350 349 349 350 348 349 348 348 350 352 350 349 350 346 332 315 300 281 266 254 248 243 242 244 244 242 245 249 252 257 260 264 264 264 266
331 333 336 337 341 346 350 349 349 348 347 347 346 346 348 348 350 351 351 351 351 346 335 322 306 286 274 256 248 242 244 247 245 245 247 250 252 255 259 262 264 266 268
324 330 333 333 337 343 346 346 346 345 345 344 346 347 347 346 345 347 348 351 348 341 334 318 302 288 275 259 253 248 248 250 248 254 254 254 254 257 258 258 263 267 267
318 324 330 330 329 335 340 343 345 344 344 341 342 343 342 340 340 338 341 346 344 338 330 316 299 288 279 273 265 261 256 252 253 255 257 259 261 260 257 258 263 267 270
307 311 319 322 324 331 337 337 342 343 342 341 339 339 338 335 333 332 334 337 335 329 325 318 308 296 283 279 273 267 262 255 261 259 257 261 262 259 258 261 266 270 270
303 306 314 316 319 325 330 333 335 337 339 339 338 337 333 330 330 330 328 330 330 326 322 320 312 296 284 278 273 269 265 264 267 262 259 260 262 260 259 261 266 270 269
300 301 307 310 314 320 323 323 328 331 333 334 334 333 332 329 326 325 322 321 322 326 322 316 311 298 287 280 275 271 264 264 261 262 261 262 263 261 261 262 265 267 269
296 295 298 301 308 314 318 317 319 324 327 327 327 328 329 327 326 324 320 314 315 317 320 314 308 301 293 286 282 275 269 262 259 261 262 264 264 263 264 261 263 264 268
291 290 293 295 300 307 312 313 315 319 323 326 325 323 324 326 326 322 322 318 315 314 315 316 310 303 296 291 288 281 271 268 264 260 263 265 264 266 265 264 265 266 266
284 285 289 291 293 301 305 308 310 316 320 324 326 325 321 321 323 321 321 315 314 311 312 312 310 303 301 296 289 281 272 267 265 263 263 263 262 262 263 264 266 265 267
281 282 283 286 287 293 296 298 303 309 315 320 323 324 320 320 321 320 316 313 312 309 307 309 310 306 301 296 289 283 276 273 267 266 264 264 265 265 265 264 266 268 268
Height
5898 5897 5896 5896 5895 5894 5893 5891 5890 5889 5889 5888 5887 5886 5885 5884 5883 5883 5882 5881 5881 5880 5880 5879 5879 5879 5879 5879 5880 5880 5880 5881 5881 5882 5883 5883 5884 5884 5885 5885 5885 5886 5886
5899 5898 5897 5896 5895 5894 5893 5892 5890 5890 5889 5888 5887 5886 5885 5884 5883 5882 5882 5881 5880 5880 5879 5879 5879 5879 5879 5879 5879 5880 5880 5880 5881 5881 5882 5882 5883 5884 5884 5885 5885 5885 5886
5899 5898 5897 5896 5896 5894 5893 5892 5891 5890 5889 5888 5887 5886 5885 5884 5883 5882 5881 5881 5880 5879 5878 5878 5878 5878 5878 5878 5878 5879 5879 5880 5880 5880 5881 5882 5883 5883 5884 5884 5884 5884 5885
5900 5899 5898 5897 5896 5895 5894 5893 5891 5890 5889 5888 5887 5886 5885 5884 5883 5882 5881 5880 5879 5878 5877 5877 5876 5876 5876 5876 5877 5877 5878 5879 5879 5880 5881 5881 5882 5882 5883 5883 5884 5884 5884
5900 5899 5898 5897 5896 5895 5894 5893 5892 5890 5889 5888 5887 5886 5885 5884 5883 5882 5881 5879 5878 5877 5877 5876 5875 5874 5873 5872 5874 5876 5877 5878 5878 5879 5880 5881 5881 5882 5882 5882 5883 5883 5884
5901 5900 5899 5898 5896 5895 5894 5893 5892 5890 5889 5888 5887 5886 5885 5883 5882 5881 5880 5878 5877 5877 5876 5875 5874 5872 5868 5868 5872 5874 5876 5877 5878 5878 5879 5880 5880 5881 5881 5882 5882 5882 5883
5901 5900 5899 5898 5896 5895 5894 5893 5892 5890 5889 5888 5886 5885 5884 5882 5881 5880 5879 5877 5876 5875 5875 5874 5873 5871 5869 5869 5872 5874 5875 5876 5877 5878 5879 5879 5880 5880 5880 5881 5881 5881 5881
5901 5900 5899 5898 5896 5895 5894 5892 5891 5890 5889 5887 5886 5884 5883 5881 5880 5879 5877 5876 5875 5874 5873 5873 5872 5872 5871 5872 5873 5874 5875 5875 5876 5877 5878 5878 5879 5879 5879 5880 5880 5880 5880
5901 5900 5898 5897 5896 5895 5893 5892 5891 5889 5888 5886 5885 5883 5882 5880 5879 5877 5876 5875 5874 5873 5872 5871 5871 5871 5871 5871 5872 5873 5874 5874 5875 5876 5877 5877 5878 5878 5878 5879 5879 5879 5879
5901 5899 5898 5897 5896 5894 5893 5891 5890 5888 5887 5886 5884 5882 5881 5879 5878 5876 5875 5873 5871 5870 5870 5870 5870 5869 5870 5871 5871 5872 5873 5873 5874 5875 5875 5876 5877 5877 5877 5877 5877 5878 5878
5901 5899 5898 5896 5895 5894 5893 5891 5890 5888 5887 5885 5883 5882 5880 5878 5877 5875 5873 5871 5868 5867 5867 5868 5869 5869 5869 5870 5870 5871 5871 5872 5873 5873 5874 5875 5875 5875 5876 5876 5876 5876 5876
5900 5899 5898 5896 5895 5894 5892 5891 5889 5887 5886 5884 5883 5881 5879 5878 5876 5874 5872 5869 5865 5864 5865 5866 5867 5868 5868 5868 5869 5869 5870 5871 5871 5872 5872 5873 5873 5874 5874 5874 5874 5874 5874
5900 5898 5897 5896 5894 5893 5892 5890 5888 5887 5885 5884 5882 5880 5878 5877 5875 5873 5871 5868 5865 5864 5864 5865 5866 5866 5867 5867 5867 5868 5869 5869 5870 5870 5871 5871 5872 5872 5872 5872 5872 5872 5872
5899 5897 5896 5895 5894 5893 5891 5889 5887 5886 5884 5882 5881 5879 5877 5876 5874 5872 5870 5868 5866 5865 5865 5865 5865 5865 5865 5865 5866 5867 5867 5868 5869 5869 5870 5870 5870 5870 5870 5870 5870 5870 5870
5898 5897 5896 5894 5893 5892 5890 5888 5887 5885 5883 5881 5880 5878 5877 5875 5873 5872 5870 5868 5867 5865 5865 5864 5864 5864 5864 5864 5864 5865 5866 5867 5867 5868 5868 5868 5868 5868 5868 5868 5868 5868 5868
5897 5896 5894 5893 5892 5891 5889 5888 5886 5884 5883 5881 5879 5878 5876 5874 5872 5871 5869 5867 5866 5865 5864 5863 5863 5863 5863 5863 5863 5864 5864 5865 5865 5866 5866 5866 5866 5866 5866 5866 5866 5866 5866
5896 5895 5893 5892 5891 5890 5888 5887 5885 5883 5882 5880 5878 5877 5875 5873 5872 5870 5868 5866 5865 5864 5863 5862 5862 5862 5862 5862 5862 5862 5863 5863 5863 5864 5864 5864 5864 5864 5864 5864 5864 5864 5864
5894 5893 5892 5891 5890 5889 5887 5886 5884 5882 5881 5879 5877 5876 5874 5872 5871 5869 5867 5866 5864 5863 5862 5861 5861 5861 5860 5860 5861 5861 5861 5861 5862 5862 5862 5862 5862 5862 5862 5862 5862 5862 5861
5893 5892 5890 5890 5889 5888 5886 5884 5883 5881 5880 5878 5876 5875 5873 5871 5869 5868 5866 5865 5863 5862 5861 5860 5859 5859 5859 5859 5859 5859 5859 5859 5860 5860 5860 5860 5860 5859 5859 5859 5859 5859 5859
5891 5890 5890 5889 5888 5886 5885 5884 5882 5880 5878 5877 5875 5873 5871 5870 5868 5866 5865 5863 5862 5861 5860 5859 5858 5858 5857 5857 5857 5857 5857 5857 5858 5858 5858 5858 5857 5857 5857 5857 5857 5856 5856
5889 5889 5888 5888 5886 5885 5884 5882 5881 5879 5877 5875 5874 5872 5870 5868 5867 5865 5863 5862 5860 5859 5858 5857 5857 5856 5856 5856 5855 5855 5855 5855 5855 5855 5855 5855 5855 5855 5855 5854 5854 5854 5853
5887 5887 5886 5885 5885 5884 5882 5881 5880 5878 5876 5874 5872 5870 5868 5867 5865 5863 5862 5860 5859 5858 5857 5856 5855 5854 5854 5853 5853 5853 5853 5853 5852 5852 5853 5853 5853 5852 5852 5852 5851 5851 5851
5885 5884 5884 5883 5882 5882 5881 5879 5878 5876 5874 5873 5871 5869 5867 5865 5863 5862 5860 5859 5857 5856 5855 5854 5853 5852 5852 5851 5851 5850 5850 5850 5850 5850 5850 5850 5850 5850 5849 5849 5848 5848 5847
5882 5881 5881 5880 5880 5879 5878 5877 5876 5874 5873 5871 5869 5867 5865 5863 5861 5859 5858 5857 5856 5854 5853 5852 5851 5850 5849 5849 5848 5847 5847 5847 5848 5848 5848 5848 5847 5847 5847 5846 5846 5845 5844
5879 5879 5878 5877 5877 5876 5875 5874 5873 5872 5870 5869 5867 5865 5863 5861 5859 5857 5856 5854 5853 5852 5851 5850 5849 5848 5847 5846 5845 5845 5844 5844 5844 5845 5845 5845 5844 5844 5843 5843 5842 5842 5841
5876 5875 5875 5874 5874 5873 5872 5872 5870 5869 5868 5866 5864 5862 5861 5859 5857 5855 5854 5852 5851 5850 5848 5847 5846 5845 5844 5843 5842 5842 5841 5841 5841 5841 5841 5841 5841 5840 5840 5839 5839 5838 5838